| time (UTC) | temp F | wind direction | speed knots | gust knots | rain 1hr in | rain 24hr in | rain mn in | humidity % | barometer mb |
| 20260507094116 | 51 | 0.0 | 0.0 | 0.00 | 0.00 | 0.00 | 88 | 1019.4 | |
| 20260507093116 | 51 | 0.0 | 0.0 | 0.00 | 0.00 | 0.00 | 88 | 1019.5 | |
| 20260507092116 | 51 | 0.0 | 0.0 | 0.00 | 0.00 | 0.00 | 87 | 1019.5 | |
| 20260507091116 | 51 | 0.0 | 0.0 | 0.00 | 0.00 | 0.00 | 88 | 1019.5 | |
| 20260507090116 | 52 | 0.0 | 0.0 | 0.00 | 0.00 | 0.00 | 87 | 1019.6 | |
| 20260507085116 | 52 | 0.0 | 0.0 | 0.00 | 0.00 | 0.00 | 87 | 1019.6 | |
| 20260507084116 | 52 | 0.0 | 0.0 | 0.00 | 0.00 | 0.00 | 87 | 1019.7 | |
| 20260507083116 | 52 | 0.0 | 0.0 | 0.00 | 0.00 | 0.00 | 86 | 1019.7 | |
| 20260507082116 | 52 | 0.0 | 0.0 | 0.00 | 0.00 | 0.00 | 86 | 1019.8 | |
| 20260507081116 | 52 | 0.0 | 0.0 | 0.00 | 0.00 | 0.00 | 86 | 1019.8 | |
| 20260507080116 | 53 | 0.0 | 0.0 | 0.00 | 0.00 | 0.00 | 86 | 1019.8 | |
| 20260507075116 | 53 | 0.0 | 0.0 | 0.00 | 0.00 | 0.00 | 86 | 1019.9 | |
| 20260507074116 | 54 | 0.0 | 0.0 | 0.00 | 0.00 | 0.00 | 86 | 1019.8 | |
| 20260507073116 | 54 | 0.0 | 0.0 | 0.00 | 0.00 | 0.00 | 86 | 1019.8 | |
| 20260507072116 | 54 | 0.0 | 0.0 | 0.00 | 0.00 | 0.00 | 86 | 1019.9 | |
| 20260507071116 | 54 | 0.0 | 0.0 | 0.00 | 0.00 | 0.00 | 86 | 1019.8 | |
| 20260507065316 | 54 | 0.0 | 0.0 | 0.00 | 0.00 | 0.00 | 85 | 1019.8 | |
| 20260507064316 | 55 | 0.0 | 0.0 | 0.00 | 0.00 | 0.00 | 85 | 1019.9 | |
| 20260507063315 | 55 | 0.0 | 0.0 | 0.00 | 0.00 | 0.00 | 85 | 1019.9 | |
| 20260507062316 | 55 | 0.0 | 0.0 | 0.00 | 0.00 | 0.00 | 85 | 1019.9 | |
| 20260507061316 | 55 | 0.0 | 0.0 | 0.00 | 0.00 | 0.00 | 84 | 1019.9 | |
| 20260507060316 | 56 | 0.0 | 0.0 | 0.00 | 0.00 | 0.00 | 84 | 1019.9 | |
| 20260507055316 | 56 | 0.0 | 0.0 | 0.00 | 0.00 | 0.00 | 84 | 1019.8 | |
| 20260507054316 | 56 | 0.0 | 0.0 | 0.00 | 0.00 | 0.00 | 83 | 1019.8 | |
| 20260507053316 | 57 | 0.0 | 0.0 | 0.00 | 0.00 | 0.00 | 83 | 1019.8 | |
| 20260507052315 | 57 | 0.0 | 0.0 | 0.00 | 0.00 | 0.00 | 82 | 1019.7 | |
| 20260507051339 | 57 | 0.0 | 0.0 | 0.00 | 0.00 | 0.00 | 81 | 1019.7 | |
| 20260507050317 | 58 | 0.0 | 0.0 | 0.00 | 0.00 | 0.00 | 81 | 1019.7 | |
| 20260507045315 | 58 | 0.0 | 0.0 | 0.00 | 0.00 | 0.00 | 79 | 1019.7 | |
| 20260507044315 | 59 | 0.0 | 0.0 | 0.00 | 0.00 | 0.00 | 79 | 1019.6 | |
| 20260507043316 | 60 | 0.0 | 0.0 | 0.00 | 0.00 | 0.00 | 77 | 1019.5 | |
| 20260507042315 | 60 | 0.0 | 0.0 | 0.00 | 0.00 | 0.00 | 76 | 1019.3 | |
| 20260507041316 | 61 | 0.0 | 0.0 | 0.00 | 0.00 | 0.00 | 74 | 1019.3 | |
| 20260507040316 | 62 | 0.0 | 0.0 | 0.00 | 0.00 | 0.00 | 72 | 1019.2 | |
| 20260507035336 | 62 | 0.0 | 0.0 | 0.00 | 0.00 | 0.00 | 70 | 1019.1 | |
| 20260507034316 | 63 | 0.0 | 0.0 | 0.00 | 0.00 | 0.00 | 69 | 1019.1 | |
| 20260507033339 | 64 | 0.0 | 0.0 | 0.00 | 0.00 | 0.00 | 69 | 1019.0 | |
| 20260507032317 | 64 | 0.0 | 0.0 | 0.00 | 0.00 | 0.00 | 68 | 1018.8 | |
| 20260507031316 | 65 | 0.0 | 0.0 | 0.00 | 0.00 | 0.00 | 68 | 1018.7 | |
| 20260507030318 | 65 | 0.0 | 0.0 | 0.00 | 0.00 | 0.00 | 68 | 1018.6 | |
| 20260507025358 | 66 | 0.0 | 0.0 | 0.00 | 0.00 | 0.00 | 66 | 1018.5 | |
| 20260507024318 | 66 | 0.0 | 0.0 | 0.00 | 0.00 | 0.00 | 65 | 1018.4 | |
| 20260507023318 | 67 | 0.0 | 0.0 | 0.00 | 0.00 | 0.00 | 63 | 1018.3 | |
| 20260507022317 | 68 | 0.0 | 0.0 | 0.00 | 0.00 | 0.00 | 64 | 1018.2 | |
| 20260507021317 | 69 | 0.0 | 0.0 | 0.00 | 0.00 | 0.00 | 62 | 1018.2 | |
| 20260507020317 | 69 | 0.0 | 0.0 | 0.00 | 0.00 | 0.00 | 63 | 1018.0 | |
| 20260507015318 | 68 | 0.0 | 0.0 | 0.00 | 0.00 | 0.00 | 63 | 1018.0 | |
| 20260507014318 | 69 | 0.0 | 0.0 | 0.00 | 0.00 | 0.00 | 62 | 1018.0 | |
| 20260507013318 | 70 | 0.0 | 0.0 | 0.00 | 0.00 | 0.00 | 62 | 1017.8 | |
| 20260507012338 | 71 | 0.0 | 0.0 | 0.00 | 0.00 | 0.00 | 61 | 1017.6 | |
| 20260507011318 | 71 | 0.0 | 0.0 | 0.00 | 0.00 | 0.00 | 60 | 1017.6 | |
| 20260507010331 | 72 | 0.0 | 0.9 | 0.00 | 0.00 | 0.00 | 60 | 1017.4 | |
| 20260507010211 | 72 | 0.0 | 0.0 | 0.00 | 0.00 | 0.00 | 59 | 1017.4 | |
| 20260507005418 | 72 | 0.0 | 0.9 | 0.00 | 0.00 | 0.00 | 58 | 1017.4 | |
| 20260507004418 | 73 | 0.0 | 0.9 | 0.00 | 0.00 | 0.00 | 58 | 1017.3 | |
| 20260507003418 | 73 | 0.0 | 1.7 | 0.00 | 0.00 | 0.00 | 58 | 1017.2 | |
| 20260507002418 | 74 | 0.0 | 0.0 | 0.00 | 0.00 | 0.00 | 58 | 1017.2 | |
| 20260507001438 | 74 | 0.0 | 1.7 | 0.00 | 0.00 | 0.00 | 57 | 1017.2 | |
| 20260507000420 | 75 | 0.0 | 0.0 | 0.00 | 0.00 | 0.00 | 57 | 1017.1 | |
| 20260506235437 | 75 | 248 | 1.7 | 5.2 | 0.00 | 0.00 | 0.00 | 57 | 1017.1 |
| 20260506234438 | 75 | 225 | 1.7 | 5.2 | 0.00 | 0.00 | 0.00 | 57 | 1017.1 |
| 20260506233418 | 76 | 270 | 3.5 | 7.8 | 0.00 | 0.00 | 0.00 | 56 | 1017.1 |
| 20260506232438 | 76 | 248 | 2.6 | 6.1 | 0.00 | 0.00 | 0.00 | 55 | 1017.1 |
| 20260506231437 | 77 | 270 | 1.7 | 5.2 | 0.00 | 0.00 | 0.00 | 55 | 1017.2 |
| 20260506230417 | 77 | 270 | 1.7 | 5.2 | 0.00 | 0.00 | 0.00 | 55 | 1017.2 |
| 20260506225437 | 78 | 0.0 | 0.0 | 0.00 | 0.00 | 0.00 | 53 | 1017.3 | |
| 20260506224417 | 79 | 0.0 | 0.0 | 0.00 | 0.00 | 0.00 | 52 | 1017.3 | |
| 20260506223417 | 80 | 0.0 | 0.0 | 0.00 | 0.00 | 0.00 | 49 | 1017.4 | |
| 20260506222417 | 81 | 0.0 | 0.0 | 0.00 | 0.00 | 0.00 | 48 | 1017.6 | |
| 20260506221417 | 80 | 0.0 | 0.0 | 0.00 | 0.00 | 0.00 | 49 | 1017.8 | |
| 20260506220417 | 80 | 0.0 | 0.0 | 0.00 | 0.00 | 0.00 | 48 | 1017.9 | |
| 20260506215417 | 79 | 0.0 | 0.0 | 0.00 | 0.00 | 0.00 | 48 | 1018.1 | |
| 20260506214417 | 79 | 0.0 | 0.0 | 0.00 | 0.00 | 0.00 | 51 | 1018.3 | |
| 20260506213418 | 79 | 0.0 | 0.0 | 0.00 | 0.00 | 0.00 | 49 | 1018.4 | |
| 20260506212417 | 78 | 0.0 | 0.0 | 0.00 | 0.00 | 0.00 | 51 | 1018.5 | |
| 20260506211417 | 78 | 0.0 | 0.0 | 0.00 | 0.00 | 0.00 | 50 | 1018.5 | |
| 20260506210417 | 77 | 0.0 | 0.0 | 0.00 | 0.00 | 0.00 | 52 | 1018.5 | |
| 20260506205438 | 77 | 0.0 | 0.0 | 0.00 | 0.00 | 0.00 | 53 | 1018.6 | |
| 20260506204458 | 76 | 0.0 | 0.0 | 0.00 | 0.00 | 0.00 | 53 | 1018.7 | |
| 20260506203438 | 76 | 0.0 | 0.0 | 0.00 | 0.00 | 0.00 | 53 | 1018.8 | |
| 20260506202438 | 76 | 0.0 | 0.0 | 0.00 | 0.00 | 0.00 | 54 | 1018.9 | |
| 20260506201418 | 75 | 0.0 | 0.0 | 0.00 | 0.00 | 0.00 | 55 | 1019.0 | |
| 20260506200419 | 74 | 0.0 | 0.0 | 0.00 | 0.00 | 0.00 | 56 | 1019.1 | |
| 20260506195419 | 73 | 0.0 | 0.0 | 0.00 | 0.00 | 0.00 | 57 | 1019.2 | |
| 20260506194417 | 72 | 0.0 | 0.0 | 0.00 | 0.00 | 0.00 | 58 | 1019.4 | |
| 20260506193418 | 73 | 0.0 | 0.0 | 0.00 | 0.00 | 0.00 | 57 | 1019.5 | |
| 20260506192439 | 73 | 0.0 | 0.0 | 0.00 | 0.00 | 0.00 | 59 | 1019.7 | |
| 20260506191417 | 72 | 0.0 | 0.0 | 0.00 | 0.00 | 0.00 | 59 | 1019.8 | |
| 20260506190507 | 71 | 0.0 | 0.0 | 0.00 | 0.00 | 0.00 | 62 | 1019.9 | |
| 20260506190248 | 71 | 0.0 | 0.0 | 0.00 | 0.00 | 0.00 | 62 | 1019.9 | |
| 20260506185116 | 70 | 0.0 | 0.0 | 0.00 | 0.00 | 0.00 | 61 | 1020.0 | |
| 20260506184117 | 70 | 0.0 | 0.0 | 0.00 | 0.00 | 0.00 | 62 | 1020.2 | |
| 20260506183116 | 69 | 0.0 | 0.0 | 0.00 | 0.00 | 0.00 | 65 | 1020.2 | |
| 20260506182116 | 68 | 0.0 | 0.0 | 0.00 | 0.00 | 0.00 | 64 | 1020.3 | |
| 20260506181117 | 68 | 0.0 | 0.0 | 0.00 | 0.00 | 0.00 | 66 | 1020.3 | |
| 20260506180116 | 67 | 0.0 | 0.0 | 0.00 | 0.00 | 0.00 | 67 | 1020.4 | |
| 20260506175156 | 66 | 0.0 | 0.0 | 0.00 | 0.00 | 0.00 | 68 | 1020.4 | |
| 20260506174116 | 66 | 0.0 | 0.0 | 0.00 | 0.00 | 0.00 | 69 | 1020.5 | |
| 20260506173116 | 65 | 0.0 | 0.0 | 0.00 | 0.00 | 0.00 | 69 | 1020.5 | |
| 20260506172116 | 65 | 0.0 | 0.0 | 0.00 | 0.00 | 0.00 | 69 | 1020.6 | |
| 20260506171137 | 66 | 0.0 | 0.0 | 0.00 | 0.00 | 0.00 | 70 | 1020.7 | |
| 20260506170116 | 64 | 0.0 | 0.0 | 0.00 | 0.00 | 0.00 | 74 | 1020.9 | |
| 20260506165116 | 62 | 0.0 | 0.0 | 0.00 | 0.00 | 0.00 | 76 | 1020.9 | |
| 20260506164116 | 62 | 0.0 | 0.0 | 0.00 | 0.00 | 0.00 | 75 | 1020.9 | |
| 20260506163137 | 61 | 0.0 | 0.0 | 0.00 | 0.00 | 0.00 | 80 | 1021.0 | |
| 20260506162116 | 59 | 0.0 | 0.0 | 0.00 | 0.00 | 0.00 | 81 | 1021.1 | |
| 20260506161136 | 59 | 0.0 | 0.0 | 0.00 | 0.00 | 0.00 | 85 | 1021.0 | |
| 20260506160116 | 57 | 0.0 | 0.0 | 0.00 | 0.00 | 0.00 | 87 | 1021.1 | |
| 20260506155116 | 56 | 0.0 | 0.0 | 0.00 | 0.00 | 0.00 | 88 | 1021.2 | |
| 20260506154116 | 56 | 0.0 | 0.0 | 0.00 | 0.00 | 0.00 | 88 | 1021.2 | |
| 20260506153116 | 56 | 0.0 | 0.0 | 0.00 | 0.00 | 0.00 | 90 | 1021.3 | |
| 20260506152116 | 56 | 0.0 | 0.0 | 0.00 | 0.00 | 0.00 | 94 | 1021.3 | |
| 20260506151116 | 54 | 0.0 | 0.0 | 0.00 | 0.00 | 0.00 | 92 | 1021.3 | |
| 20260506150117 | 53 | 0.0 | 0.0 | 0.00 | 0.00 | 0.00 | 92 | 1021.3 | |
| 20260506145116 | 52 | 0.0 | 0.0 | 0.00 | 0.00 | 0.00 | 92 | 1021.3 | |
| 20260506144116 | 52 | 0.0 | 0.0 | 0.00 | 0.00 | 0.00 | 93 | 1021.3 | |
| 20260506143116 | 51 | 0.0 | 0.0 | 0.00 | 0.00 | 0.00 | 93 | 1021.4 | |
| 20260506142136 | 50 | 0.0 | 0.0 | 0.00 | 0.00 | 0.00 | 93 | 1021.3 | |
| 20260506141116 | 49 | 0.0 | 0.0 | 0.00 | 0.00 | 0.00 | 92 | 1021.2 | |
| 20260506140116 | 49 | 0.0 | 0.0 | 0.00 | 0.00 | 0.00 | 92 | 1021.0 | |
| 20260506135117 | 48 | 0.0 | 0.0 | 0.00 | 0.00 | 0.00 | 91 | 1020.9 | |
| 20260506134117 | 48 | 0.0 | 0.0 | 0.00 | 0.00 | 0.00 | 91 | 1020.8 | |
| 20260506133137 | 48 | 0.0 | 0.0 | 0.00 | 0.00 | 0.00 | 91 | 1020.7 | |
| 20260506132137 | 47 | 0.0 | 0.0 | 0.00 | 0.00 | 0.00 | 91 | 1020.6 | |
| 20260506131116 | 47 | 0.0 | 0.0 | 0.00 | 0.00 | 0.00 | 91 | 1020.6 | |
| 20260506130212 | 46 | 0.0 | 0.0 | 0.00 | 0.00 | 0.00 | 90 | 1020.5 | |
| 20260506125117 | 47 | 0.0 | 0.0 | 0.00 | 0.00 | 0.00 | 90 | 1020.4 | |
| 20260506124117 | 47 | 0.0 | 0.0 | 0.00 | 0.00 | 0.00 | 90 | 1020.3 | |
| 20260506123117 | 47 | 0.0 | 0.0 | 0.00 | 0.00 | 0.00 | 90 | 1020.3 | |
| 20260506122117 | 48 | 0.0 | 0.0 | 0.00 | 0.00 | 0.00 | 90 | 1020.3 | |
| 20260506121157 | 48 | 0.0 | 0.0 | 0.00 | 0.00 | 0.00 | 90 | 1020.1 | |
| 20260506120119 | 48 | 0.0 | 0.0 | 0.00 | 0.00 | 0.00 | 89 | 1020.1 | |
| 20260506115117 | 48 | 0.0 | 0.0 | 0.00 | 0.00 | 0.00 | 89 | 1020.1 | |
| 20260506114117 | 48 | 0.0 | 0.0 | 0.00 | 0.00 | 0.00 | 89 | 1020.0 | |
| 20260506113117 | 48 | 0.0 | 0.0 | 0.00 | 0.00 | 0.00 | 89 | 1019.9 | |
| 20260506112117 | 49 | 0.0 | 0.0 | 0.00 | 0.00 | 0.00 | 89 | 1019.8 | |
| 20260506111118 | 49 | 0.0 | 0.0 | 0.00 | 0.00 | 0.00 | 89 | 1019.8 | |
| 20260506110117 | 49 | 0.0 | 0.0 | 0.00 | 0.00 | 0.00 | 89 | 1019.8 | |
| 20260506105158 | 50 | 0.0 | 0.0 | 0.00 | 0.00 | 0.00 | 89 | 1019.9 | |
| 20260506104117 | 50 | 0.0 | 0.0 | 0.00 | 0.00 | 0.00 | 89 | 1019.8 | |
| 20260506103117 | 50 | 0.0 | 0.0 | 0.00 | 0.00 | 0.00 | 89 | 1019.8 | |
| 20260506102200 | 50 | 0.0 | 0.0 | 0.00 | 0.00 | 0.00 | 89 | 1019.7 | |
| 20260506101118 | 50 | 0.0 | 0.0 | 0.00 | 0.00 | 0.00 | 89 | 1019.6 | |
| 20260506100117 | 50 | 0.0 | 0.0 | 0.00 | 0.00 | 0.00 | 89 | 1019.6 | |
| 20260506095138 | 50 | 0.0 | 0.0 | 0.00 | 0.00 | 0.00 | 89 | 1019.6 |